Weather in Konezavod

Russia / Samara Oblast     53°34′59″N   50°38′54″E
temp.,
°C
wind,
m/s
gust,
m/s
humid.,
%
clouds,
%
prec.,
mm/h
press.,
hPa
HPBL,
m
28 february, sun
sun2801:00−11nnw61194100 0.2 999308
04:00−13nnw71294100 0.4 1001355
07:00−15nnw71295100 0.2 1003345
10:00−16nw71195100 0.3 1005339
13:00−14nw6994100 0.1 1007409
16:00−13nw6993100 0.1 1009463
19:00−14nw51095100 0.2 1012391
22:00−15nnw4995100 0.3 1014289
1 march, mon
mon101:00−16nw489692 0.1 1015212
04:00−20nw469990 0.1 1017118
07:00−21nw369983 0.0 101995
10:00−20nw479662 0.0 1021211
13:00−17nw459455 0.0 1021258
16:00−16nw369360 0.0 1022320
19:00−19wnw339851 0.0 102224
22:00−20wsw229625 0.0 102220
2 march, tue
tue201:00−19ssw34980 0.0 102071
04:00−17ssw599947 0.0 1017189
07:00−14ssw61296100 0.0 1013282
10:00−10ssw81294100 0.3 1010434
13:00−6ssw81394100 0.7 1006620
16:00−4ssw81395100 1.7 1003699
19:00−3ssw71396100 1.5 1000588
22:00−2sw51097100 2.4 1000371
3 march, wed
wed301:00−3wnw5996100 0.2 999304
04:00−3wnw489698 0.3 999302
07:00−4wnw4897100 0.3 1000284
10:00−3nw5895100 0.8 1002483
13:00−2nw5792100 0.1 1003570
16:00−1nw5892100 0.2 1004706
19:00−3nw5992100 0.1 1005524
22:00−5wnw499799 0.3 1007296
4 march, thu
thu401:00−6nw6119498 0.2 1008418
04:00−10nw5129697 0.2 1010283
07:00−12wnw499798 0.0 1012157
10:00−10wnw599695 0.1 1014277
13:00−6wsw479093 0.0 1014470
16:00−6sw6109293 0.0 1012499
19:00−5sw81592100 0.1 1010665
22:00−3sw91591100 0.1 1009749